TIANMU-1 11

Last updated on Thu Oct 30 2025 00:02:23 GMT+0000 (Coordinated Universal Time)

1 58645U 23205A 25302.49912941 .00008084 00000+0 33777-3 0 9990 2 58645 97.3657 322.9139 0011407 97.6242 262.6292 15.23823273102355
UTC large
Height (km)
Speed (km/s)
/
Latitude / Longitude
Inclination (degrees)
Orbital Period (minutes)
Azimuth
Elevation
Range (km)
Doppler Factor

Next 0 passes for location: London (51.5072 / 0.1276)

Sorry there are no passes over London.